Location: Lugrin
(46.4033°N, 6.6674°E)
Time: 16:38:21
(UTC+00:00)

NOSS 3-2 (C) - Pass Details

Date: 18 September 2020
Orbit: 795 x 1418 km, 63.4° (Epoch: 25 October)

Event Time Altitude Azimuth Distance (km) Brightness Sun altitude
Rises 20:34:31 0° 319° (NW) 3,985 7.9 -29.0°
Reaches altitude 10° 20:37:06 10° 317° (NW) 3,106 7.0 -29.3°
Maximum altitude 20:44:36 66° 237° (WSW) 1,405 4.2 -30.3°
Enters shadow 20:46:12 55° 189° (S) 1,549 4.2 -30.5°
